User: anonymous   Login
Location: Unspecified
(0.0000°N, 0.0000°E)
Time: 01:55:16
(UTC+00:00)
Language:

STARLINK-4109 - Orbit

View from above orbital plane
View from above orbital plane
View from above satellite
View from above satellite

Ground track
Ground track

The orbit is defined by the following mean orbital elements,

1 53268U          26145.55914487 +.00000000 +00000-0 +72009-4 0 00000
2 53268  53.2144 209.0417 0000629  51.9425 308.1624 15.08842403    00
Epoch (UTC): 25 May 2026 13:25:10
Eccentricity: 0.0000629
inclination: 53.2144°
perigee height: 539 km
apogee height: 540 km
right ascension of ascending node: 209.0417°
argument of perigee: 51.9425°
revolutions per day: 15.08842403
mean anomaly at epoch: 308.1624°

The dashed part of the orbit path shows where the satellite is in the earth's shadow,  

DLR